Location: Unspecified
(0.0000°N, 0.0000°E)
Time: 21:07:59
(UTC+02:00)

Atlas Centaur 2 - Visible Passes

Search period start: 01 September 2014 00:00
Search period end: 11 September 2014 00:00
Orbit: 460 x 1329 km, 30.4° (Epoch: 31 August)

Date Brightness Start Highest point End Pass type
(mag) Time Alt. Az. Time Alt. Az. Time Alt. Az.
01 Sep 5.0 04:32:45 20° NE 04:32:45 20° NE 04:34:54 10° NE visible
01 Sep 4.3 06:15:34 23° NW 06:16:48 24° NNW 06:23:05 10° NNE visible
02 Sep 5.1 04:32:11 18° NE 04:32:11 18° NE 04:33:59 10° NE visible
02 Sep 4.5 06:15:00 18° NW 06:16:14 19° NNW 06:21:43 10° NNE visible
03 Sep 5.2 04:31:34 15° NE 04:31:34 15° NE 04:32:57 10° NE visible
03 Sep 4.8 06:14:23 14° NW 06:15:45 15° NNW 06:20:07 10° N visible
04 Sep 5.3 04:30:55 13° NNE 04:30:55 13° NNE 04:31:48 10° NNE visible
04 Sep 5.0 06:13:43 11° NNW 06:15:21 12° NNW 06:18:04 10° N visible
05 Sep 5.4 04:30:12 11° NNE 04:30:12 11° NNE 04:30:31 10° NNE visible
